FW2584 Weather Reports


Display with metric or nautical units.
time (UTC)temp
F
wind
direction
speed
MPH
gust
MPH
rain 1hr
in
rain 24hr
in
rain mn
in
humidity
%
barometer
mb
20260503200523 70 310 1.0 8.0 0.00 0.01 0.00 43 1016.9
20260503200036 70 0 0.0 3.0 0.00 0.01 0.00 42 1016.9
20260503195523 70 0 0.0 9.0 0.00 0.01 0.00 41 1017.1
20260503195021 70 257 1.0 10.0 0.00 0.01 0.00 44 1017.2
20260503194540 69 0 0.0 10.0 0.00 0.01 0.00 43 1017.3
20260503194022 69 0 2.0 10.0 0.00 0.01 0.00 40 1017.5
20260503193523 69 300 0.0 4.0 0.00 0.01 0.00 43 1017.5
20260503193043 70 0 0.0 4.0 0.00 0.01 0.00 41 1017.7
20260503192522 70 0 0.0 4.0 0.00 0.01 0.00 45 1017.8
20260503192025 69 257 0.0 7.0 0.00 0.01 0.00 43 1017.8
20260503191603 69 229 2.0 8.0 0.00 0.01 0.00 45 1017.9
20260503191024 69 0 0.0 8.0 0.00 0.01 0.00 44 1018.1
20260503190527 68 244 1.0 8.0 0.00 0.01 0.00 44 1017.9
20260503190039 68 0 1.0 9.0 0.00 0.01 0.00 43 1018.1
20260503185528 68 0 1.0 9.0 0.00 0.01 0.00 43 1018.2
20260503185023 68 310 3.0 9.0 0.00 0.01 0.00 46 1018.3
20260503184538 68 0 0.0 8.0 0.00 0.01 0.00 45 1018.3
20260503184020 68 0 0.0 8.0 0.00 0.01 0.00 45 1018.4
20260503183522 68 0 0.0 3.0 0.00 0.01 0.00 48 1018.5
20260503183035 68 0 0.0 7.0 0.00 0.01 0.00 49 1018.5
20260503182521 67 0 0.0 7.0 0.00 0.01 0.00 48 1018.5
20260503182021 67 252 1.0 6.0 0.00 0.01 0.00 45 1018.6
20260503181547 67 0 0.0 7.0 0.00 0.01 0.00 45 1018.8
20260503181021 67 0 1.0 7.0 0.00 0.01 0.00 48 1018.7
20260503180522 67 0 0.0 5.0 0.00 0.01 0.00 48 1018.6
20260503180039 66 0 0.0 9.0 0.00 0.01 0.00 47 1018.7
20260503175521 67 0 0.0 9.0 0.00 0.05 0.00 47 1018.8
20260503175118 66 306 1.0 8.0 0.00 0.05 0.00 47 1019.0
20260503174547 66 248 1.0 8.0 0.00 0.05 0.00 48 1019.0
20260503174023 66 227 2.0 9.0 0.00 0.05 0.00 49 1018.9
20260503173524 65 0 1.0 9.0 0.00 0.05 0.00 48 1019.1
20260503173035 65 0 0.0 5.0 0.00 0.05 0.00 50 1019.3
20260503172522 65 237 2.0 6.0 0.00 0.05 0.00 49 1019.2
20260503172022 65 0 0.0 6.0 0.00 0.05 0.00 51 1019.3
20260503171533 64 0 0.0 6.0 0.00 0.05 0.00 49 1019.5
20260503171023 64 246 0.0 5.0 0.00 0.05 0.00 49 1019.6
20260503170524 64 0 0.0 5.0 0.00 0.05 0.00 51 1019.6
20260503150524 60 0 0.0 7.0 0.00 0.15 0.00 55 1020.4
20260503131022 50 0 0.0 1.0 0.00 0.30 0.00 95 1020.0
20260503130523 49 0 0.0 2.0 0.00 0.30 0.00 98 1020.1
20260503110523 41 0 0.0 0.0 0.00 0.34 0.00 98 1019.0
20260503081540 44 0 0.0 0.0 0.00 0.44 0.00 98 1016.9
20260503081020 44 0 0.0 0.0 0.00 0.44 0.00 98 1016.9
20260503080523 44 0 0.0 0.0 0.00 0.44 0.00 98 1016.8
20260503072524 45 0 0.0 0.0 0.00 0.44 0.00 98 1016.3
20260503072021 45 0 0.0 0.0 0.00 0.44 0.00 98 1016.2
20260503071536 45 0 0.0 0.0 0.00 0.44 0.00 98 1016.2
20260503071021 45 0 0.0 0.0 0.00 0.44 0.00 98 1016.1
20260503070521 45 0 0.0 0.0 0.00 0.44 0.00 98 1016.1
20260503055021 47 0 0.0 0.0 0.00 0.44 0.00 98 1015.9
20260503054555 47 0 0.0 0.0 0.00 0.44 0.00 98 1015.7
20260503054020 47 0 0.0 0.0 0.00 0.44 0.00 98 1015.9
20260503053523 47 0 0.0 0.0 0.00 0.44 0.00 98 1015.9
20260503053035 47 0 0.0 0.0 0.00 0.44 0.00 98 1015.8
20260503052522 47 0 0.0 0.0 0.00 0.44 0.00 98 1015.8
20260503052022 47 0 0.0 0.0 0.00 0.44 0.00 98 1015.8
20260503051532 47 0 0.0 0.0 0.00 0.44 0.00 98 1015.8
20260503051021 47 0 0.0 0.0 0.00 0.44 0.00 98 1015.7
20260503050525 47 0 0.0 0.0 0.00 0.44 0.00 98 1015.8
20260503050035 47 0 0.0 0.0 0.00 0.44 0.00 98 1015.7
20260503045523 47 0 0.0 0.0 0.00 0.44 0.00 98 1015.6
20260503045021 47 0 0.0 0.0 0.00 0.44 0.00 98 1015.5
20260503044541 47 0 0.0 0.0 0.00 0.44 0.00 98 1015.5
20260503044021 47 0 0.0 0.0 0.00 0.44 0.00 98 1015.6
20260503043521 47 0 0.0 0.0 0.00 0.44 0.00 98 1015.5
20260503043045 47 0 0.0 0.0 0.00 0.44 0.00 98 1015.6
20260503042522 47 0 0.0 0.0 0.00 0.44 0.00 98 1015.6
20260503042022 47 0 0.0 0.0 0.00 0.44 0.00 98 1015.6
20260503041533 47 0 0.0 0.0 0.00 0.44 0.00 98 1015.4
20260503041023 47 0 0.0 0.0 0.00 0.44 0.00 98 1015.5
20260503040524 47 0 0.0 0.0 0.00 0.44 0.00 98 1015.4
20260503040038 47 0 0.0 0.0 0.00 0.44 0.00 98 1015.4
20260503035524 47 0 0.0 0.0 0.00 0.44 0.44 98 1015.5
20260503035023 47 0 0.0 0.0 0.00 0.44 0.44 98 1015.4
20260503034544 47 0 0.0 0.0 0.00 0.44 0.44 98 1015.2
20260503034022 48 0 0.0 0.0 0.00 0.44 0.44 98 1015.3
20260503033521 48 0 0.0 0.0 0.00 0.44 0.44 98 1015.2
20260503033036 48 0 0.0 0.0 0.00 0.44 0.44 98 1015.2
20260503032523 48 0 0.0 0.0 0.00 0.44 0.44 98 1015.0
20260503032023 48 0 0.0 0.0 0.00 0.44 0.44 98 1014.8
20260503031533 48 0 0.0 0.0 0.00 0.44 0.44 98 1014.6
20260503031023 48 0 0.0 0.0 0.00 0.44 0.44 98 1014.6
20260503030519 48 0 0.0 0.0 0.00 0.44 0.44 98 1014.5
20260503030037 48 0 0.0 0.0 0.00 0.44 0.44 98 1014.4
20260503025519 49 0 0.0 0.0 0.00 0.44 0.44 98 1014.4
20260503025023 49 0 0.0 0.0 0.00 0.44 0.44 97 1014.4
20260503024537 49 0 0.0 0.0 0.00 0.44 0.44 97 1014.4
20260503024023 49 0 0.0 0.0 0.00 0.44 0.44 98 1014.4
20260503023524 49 0 0.0 0.0 0.00 0.44 0.44 97 1014.4
20260503023039 49 0 0.0 0.0 0.00 0.44 0.44 97 1014.3
20260503022523 49 0 0.0 0.0 0.00 0.44 0.44 97 1014.3
20260503022023 50 0 0.0 0.0 0.00 0.44 0.44 97 1014.3
20260503021535 50 0 0.0 0.0 0.00 0.44 0.44 97 1014.4
20260503021023 50 0 0.0 0.0 0.00 0.44 0.44 97 1014.4
20260503020523 50 0 0.0 0.0 0.00 0.44 0.44 97 1014.4
20260503020033 50 0 0.0 0.0 0.00 0.44 0.44 97 1014.3
20260503015522 50 0 0.0 0.0 0.00 0.44 0.44 97 1014.3
20260503015022 51 0 0.0 0.0 0.00 0.44 0.44 97 1014.4
20260503014533 51 0 0.0 0.0 0.00 0.44 0.44 97 1014.4
20260503014019 51 0 0.0 0.0 0.00 0.44 0.44 97 1014.2
20260503013524 51 0 0.0 0.0 0.00 0.44 0.44 97 1014.0
20260503013040 51 0 0.0 0.0 0.00 0.44 0.44 97 1014.0
20260503012523 51 0 0.0 0.0 0.00 0.44 0.44 97 1013.9
20260503012022 51 0 0.0 0.0 0.00 0.44 0.44 97 1013.8
20260503011536 51 0 0.0 0.0 0.00 0.44 0.44 97 1013.7
20260503011023 52 0 0.0 0.0 0.00 0.44 0.44 97 1013.5
20260503010525 52 0 0.0 0.0 0.00 0.44 0.44 97 1013.4
20260503010036 52 0 0.0 0.0 0.00 0.44 0.44 97 1013.4
20260503005523 52 0 0.0 0.0 0.00 0.44 0.44 96 1013.3
20260503005026 52 0 0.0 0.0 0.00 0.44 0.44 96 1013.2
20260503004536 52 0 0.0 0.0 0.00 0.44 0.44 96 1013.1
20260503004023 52 0 0.0 0.0 0.00 0.44 0.44 96 1012.9
20260503003522 53 0 0.0 0.0 0.00 0.44 0.44 96 1012.8
20260503003044 53 0 0.0 0.0 0.00 0.44 0.44 96 1012.8
20260503002522 53 0 0.0 0.0 0.00 0.44 0.44 96 1012.9
20260503002022 53 0 0.0 0.0 0.00 0.44 0.44 96 1012.6
20260503001548 53 0 0.0 0.0 0.00 0.44 0.44 96 1012.5
20260503001023 54 0 0.0 0.0 0.00 0.44 0.44 96 1012.5
20260503000524 54 0 0.0 0.0 0.00 0.44 0.44 96 1012.4
20260503000044 54 0 0.0 0.0 0.00 0.44 0.44 96 1012.4
20260502235523 54 0 0.0 0.0 0.00 0.44 0.44 96 1012.3
20260502235024 54 0 0.0 1.0 0.00 0.44 0.44 95 1012.3
20260502234546 54 0 0.0 1.0 0.00 0.44 0.44 95 1012.4
20260502234023 54 0 0.0 2.0 0.00 0.44 0.44 95 1012.3
20260502233522 54 0 0.0 2.0 0.00 0.44 0.44 95 1012.2
20260502233040 54 0 0.0 0.0 0.00 0.44 0.44 95 1012.0
20260502232524 54 0 0.0 0.0 0.00 0.44 0.44 95 1012.0
20260502232022 54 0 0.0 0.0 0.00 0.44 0.44 95 1011.9
20260502231535 54 0 0.0 0.0 0.00 0.44 0.44 95 1011.9
20260502231022 54 0 0.0 0.0 0.00 0.44 0.44 95 1011.9
20260502230523 54 0 0.0 0.0 0.00 0.44 0.44 95 1011.8
20260502230036 54 0 0.0 0.0 0.00 0.44 0.44 95 1011.8
20260502225521 55 0 0.0 0.0 0.00 0.44 0.44 95 1011.8
20260502225023 55 0 0.0 1.0 0.00 0.44 0.44 94 1011.9
20260502224544 55 0 0.0 1.0 0.00 0.44 0.44 94 1011.9
20260502224023 55 0 0.0 1.0 0.00 0.44 0.44 94 1012.0
20260502223521 55 0 0.0 0.0 0.00 0.44 0.44 94 1012.0
20260502223041 55 0 0.0 0.0 0.00 0.44 0.44 95 1012.1
20260502222523 55 0 0.0 0.0 0.00 0.44 0.44 95 1012.0
20260502222022 55 0 0.0 0.0 0.00 0.44 0.44 95 1012.1
20260502221535 55 0 0.0 0.0 0.00 0.44 0.44 94 1012.1
20260502221023 55 0 0.0 0.0 0.00 0.44 0.44 94 1012.1
20260502220523 55 0 0.0 1.0 0.00 0.44 0.44 94 1012.0
20260502220035 55 0 0.0 1.0 0.01 0.44 0.44 94 1012.0
20260502215523 55 0 0.0 1.0 0.01 0.44 0.44 94 1011.9
20260502215023 55 0 0.0 2.0 0.01 0.44 0.44 94 1011.8
20260502214552 55 0 0.0 2.0 0.01 0.44 0.44 95 1011.8
20260502214023 55 134 0.0 0.0 0.01 0.44 0.44 95 1011.6
20260502213523 55 0 0.0 4.0 0.01 0.44 0.44 95 1011.7
20260502213040 56 0 0.0 4.0 0.01 0.44 0.44 96 1011.6
20260502212523 56 0 0.0 0.0 0.01 0.44 0.44 96 1011.6
20260502212024 56 0 0.0 0.0 0.01 0.44 0.44 96 1011.6
20260502211536 55 0 0.0 0.0 0.01 0.44 0.44 95 1011.7
20260502211024 56 0 0.0 0.0 0.01 0.44 0.44 95 1011.7
20260502210522 56 0 0.0 0.0 0.01 0.44 0.44 95 1011.7
20260502210037 56 0 0.0 1.0 0.00 0.43 0.43 95 1011.7
20260502205523 55 0 0.0 1.0 0.00 0.43 0.43 94 1011.9
20260502205025 55 0 0.0 0.0 0.00 0.43 0.43 95 1011.9
20260502204535 55 0 0.0 1.0 0.00 0.43 0.43 94 1011.9
20260502204023 55 0 0.0 3.0 0.00 0.43 0.43 94 1011.9
20260502203526 55 0 0.0 3.0 0.00 0.43 0.43 93 1011.8
20260502203042 56 0 0.0 3.0 0.00 0.43 0.43 93 1011.7
20260502202522 56 0 0.0 3.0 0.00 0.43 0.43 94 1011.8
20260502202022 56 0 0.0 3.0 0.00 0.43 0.43 94 1011.8
20260502201538 56 0 0.0 4.0 0.00 0.43 0.43 93 1011.7
20260502201023 56 48 0.0 4.0 0.00 0.43 0.43 94 1011.7